If you wish to contribute or participate in the discussions about articles you are invited to join SKYbrary as a registered user

 Actions

Băneasa International Airport

From SKYbrary Wiki

LRBS
Airport
ICAO: LRBS – IATA: BBU
Summary
Name Băneasa International Airport
Region
Territory Romania RO.gif
Location , Bucuresti
Serving Bucharest
Elevation 90.526 m
297 ft
297 ft90.526 m
Type medium airport
Coordinates 44° 30' 11.50" N, 26° 6' 7.60" E
Runways
Designator Length Width Surface ROPS
7/25 3200 m10,498.688 ft
45 m147.638 ft
CON no/no


METAR
Observation LRBS 061730Z 12003KT 9999 FEW050CB 26/13 Q1008 NOSIG
Station Bucuresti / Imh
Date/Time 06 June 2020 17:30:00
Wind direction 120°
Wind speed 03 kts
Lowest cloud amount few clouds
Temperature 26°C
Dew point 13°C
Humidity 44%
QNH 1008 hPa
Weather condition n/a